Tracking 19847 objects as of 16-Sep-2019
HD Live streaming from Space Station
objects crossing your sky now

FENGYUN 1C DEB

Track FENGYUN 1C DEB now!
10-day predictions


NORAD ID: 31993
Int'l Code: 1999-025CPW
Perigee: 839.4 km
Apogee: 1,535.5 km
Inclination: 99.2 °
Period: 109.0 minutes
Semi major axis: 7558 km
RCS: 0.0118 m2 (small)
Launch date: May 10, 1999
Source: People's Republic of China (PRC)
Launch site: Taiyaun Space Center, China (TSC)

Note: This is SATELLITE DEBRIS
aabbcc
Your satellite tracking list
Your tracking list is empty




NASA's NSSDC Master Catalog

Two Line Element Set (TLE):
1 31993U 99025CPW 19258.35919897  .00000695  00000-0  10292-2 0  9992
2 31993  99.2022  93.4705 0460492 243.1981 112.1343 13.21156287587878
Source of the keplerian elements: AFSPC